Preview of NWS' New Version of Forecast
This preview is not operational and should not be used for support decisions.

Regional Weather Roundup (RWR)

Issued by National Weather Service (NWS)

                            
000
ASUS45 KABQ 190210
RWRNM 
NEW MEXICO REGIONAL WEATHER ROUNDUP
NATIONAL WEATHER SERVICE ALBUQUERQUE NM
800 PM MDT THU APR 18 2019

NOTE: "FAIR" MEANS FEW OR NO CLOUDS BELOW 12,000 FEET AGL WITH NO
       SIGNIFICANT WEATHER OR OBSTRUCTIONS TO VISION.

      THIS PRODUCT IS RELEASED AS TWO VERSIONS.  ONE VERSION NEAR
      THE TOP OF THE HOUR CONTAINING PRELIMINARY DATA FROM ALBUQUERQUE
      AND OTHER STATIONS.  A FINAL VERSION WITH ADDITIONAL DATA IS 
      ISSUED ABOUT 10 MINUTES AFTER THE HOUR.
 
NMZ501-503-504-510>518-190300-
NORTHWEST PLATEAU/NORTHCENTRAL MOUNTAINS
  
CITY           SKY/WX    TMP DP  RH WIND       PRES   REMARKS
FARMINGTON     FAIR      66  21  18 W17       30.16R                  
LOS ALAMOS       N/A     61  13  14 NW12      30.19S                  
SANTA FE       FAIR      61  20  20 N6        30.13R                  
TAOS           FAIR      56  12  17 N12       30.21R                  
ANGEL FIRE       N/A     42  27  54 NW7       30.25R                  

$$
NMZ402-403-502-505>509-190300-
WESTCENTRAL MOUNTAINS/SOUTHWEST MOUNTAINS
  
CITY           SKY/WX    TMP DP  RH WIND       PRES   REMARKS
GALLUP         FAIR      63  16  16 NW12      30.24R                  
GRANTS         FAIR      58  17  19 NW9G20    30.24R                  
SILVER CITY    FAIR      64  29  26 SW5       30.17S                  

$$
NMZ407-409-411-412-190300-
SOUTHERN DESERTS
  
CITY           SKY/WX    TMP DP  RH WIND       PRES   REMARKS
DEMING         FAIR      71  26  18 SW6       30.12S                  
LAS CRUCES     FAIR      69  22  16 SE3       30.13R                  
HOLLOMAN AFB   FAIR      68  36  30 NE6       30.12S                  
ALAMOGORDO     FAIR      66  34  30 E3        30.11S                  
T OR C         FAIR      72  25  17 S7        30.11S                  

$$
NMZ519>523-190300-
CENTRAL VALLEYS/CENTRAL HIGHLANDS
  
CITY           SKY/WX    TMP DP  RH WIND       PRES   REMARKS
ALBUQUERQUE    FAIR      68  22  17 NW14      30.13R                  
DOUBLE EAGLE   CLEAR     61  27  27 W13       30.16S                  
MORIARTY ARPT  FAIR      62  29  29 W10       30.16R                  
CLINES CORNERS FAIR      54  27  35 W13       30.18S                  
BELEN          FAIR      63  37  37 CALM      30.14R                  
SOCORRO        FAIR      66  34  30 S7        30.11S                  

$$
NMZ524>526-539-540-190300-
SOUTHCENTRAL MOUNTAINS
  
CITY           SKY/WX    TMP DP  RH WIND       PRES   REMARKS
RUIDOSO        FAIR      55  25  30 W8        30.23S                  

$$
NMZ527>531-190300-
NORTHEAST HIGHLANDS/NORTHEAST PLAINS
  
CITY           SKY/WX    TMP DP  RH WIND       PRES   REMARKS
LAS VEGAS      FAIR      51  35  54 E12       30.17R                  
RATON          FAIR      48  32  53 N12       30.19R                  
CLAYTON        FAIR      49  28  44 N12       30.15R                  

$$
NMZ532>537-190300-
EASTCENTRAL PLAINS
  
CITY           SKY/WX    TMP DP  RH WIND       PRES   REMARKS
SANTA ROSA     FAIR      63  37  37 E17       30.06R                  
TUCUMCARI      FAIR      58  38  47 E16       30.09R                  
CANNON AFB     FAIR      58  39  49 NE6       30.11R                  
CLOVIS AIRPORT FAIR      56  39  53 NE12      30.11R                  

$$
NMZ028-029-538-190300-
SOUTHEAST PLAINS
  
CITY           SKY/WX    TMP DP  RH WIND       PRES   REMARKS
ROSWELL        FAIR      67  39  35 S3        30.03S                  
ARTESIA        FAIR      68  37  32 SE6       30.05R                  
CARLSBAD       FAIR      67  36  31 SE7       30.03S                  
HOBBS          FAIR      63  34  34 W6        30.07R                  


$$